Regional Weather Roundup
Issued by NWS Little Rock, AR

Home | Current Version | Previous Version | Text Only | Print | Product List | Glossary On
Versions: 1 2 3 4 5 6 7 8 9 10 11 12 13 14 15 16 17 18 19 20 21 22 23 24 25 26 27 28 29 30 31 32
000
ASUS44 KLZK 171305
RWRLZK

WEATHER ROUNDUP FOR ARKANSAS
NATIONAL WEATHER SERVICE LITTLE ROCK AR
800 AM CDT TUE OCT 17 2017

NOTE: "FAIR" INDICATES FEW OR NO CLOUDS BELOW 12,000 FEET WITH NO
SIGNIFICANT WEATHER AND/OR OBSTRUCTIONS TO VISIBILITY.

ARZ001-003-010-029-171400-
NORTHWEST ARKANSAS

CITY           SKY/WX    TMP DP  RH WIND       PRES   REMARKS
FAYETTEVILLE   CLEAR     37  37 100 CALM      30.32R
FORT SMITH     CLOUDY    46  45  96 NE5       30.32S
HARRISON       PTCLDY    41  39  93 E6        30.33R
BENTONVILLE    PTCLDY    44  40  85 CALM      30.33S
ROGERS         MOCLDY    46  42  86 SE8       30.32R
SILOAM SPGS    CLOUDY    41  39  93 E6        30.31S
HIGHFILL       CLOUDY    41  39  93 CALM      30.31S
SPRINGDALE     CLEAR     45  39  81 SE5       30.33R
$$

ARZ004-005-016-171400-
NORTH CENTRAL ARKANSAS

CITY           SKY/WX    TMP DP  RH WIND       PRES   REMARKS
BATESVILLE     PTCLDY    40  39  97 N3        30.35S
FLIPPIN        CLOUDY    38  37  97 CALM      30.36R
MTN HOME       PTCLDY    42  41  96 CALM      30.33S
$$

ARZ040-041-171400-
WEST CENTRAL ARKANSAS

CITY           SKY/WX    TMP DP  RH WIND       PRES   REMARKS
MENA           CLEAR     37  37 100 CALM      30.34R
MOUNT IDA      CLEAR     37  33  85 CALM      30.31
$$

ARZ009-017-025-026-028-171400-
NORTHEAST ARKANSAS

CITY           SKY/WX    TMP DP  RH WIND       PRES   REMARKS
CORNING        FAIR      41  41 100 CALM      30.37
JONESBORO      CLEAR     43  42  97 CALM      30.35R
NEWPORT        CLOUDY    42  40  92 CALM      30.35F
WALNUT RIDGE   CLOUDY    41  40  96 N3        30.37R
BLYTHEVILLE    CLEAR     44  43  96 E3        30.36S
$$

ARZ022-023-033-042-044-171400-
CENTRAL ARKANSAS

CITY           SKY/WX    TMP DP  RH WIND       PRES   REMARKS
LITTLE ROCK    PTCLDY    44  43  96 CALM      30.35R
N LITTLE ROCK    N/A     50  41  70 E3        30.36R
JACKSONVILLE   PTCLDY    39  38  94 CALM      30.33S
SEARCY         PTCLDY    43  42  97 CALM      30.35
HOT SPRINGS    FOG       42  42 100 CALM      30.34S VSB 1/4
RUSSELLVILLE   CLEAR     39  38  96 CALM      30.34R
CLINTON        FAIR      37  37 100 CALM      30.36S
$$

ARZ036-171400-
EAST ARKANSAS

CITY           SKY/WX    TMP DP  RH WIND       PRES   REMARKS
WEST MEMPHIS   CLEAR     44  43  96 CALM      30.35R
$$

ARZ050-053-066-070-073-171400-
SOUTHWEST ARKANSAS

CITY           SKY/WX    TMP DP  RH WIND       PRES   REMARKS
ARKADELPHIA    FAIR      35  35 100 CALM      30.35R
CAMDEN         CLEAR     37  36  93 CALM      30.32S
TEXARKANA      CLEAR     40  40 100 NE3       30.32R
EL DORADO      CLEAR     41  38  89 E3        30.31S
$$

ARZ056-057-069-171400-
SOUTHEAST ARKANSAS

CITY           SKY/WX    TMP DP  RH WIND       PRES   REMARKS
PINE BLUFF     CLEAR     45  41  86 CALM      30.34R
STUTTGART      CLEAR     43  42  97 NE5       30.34S
MONTICELLO     PTCLDY    46  42  86 CALM      30.32R

$$






USA.gov is the U.S. government's official web portal to all federal, state and local government web resources and services.